Regional Weather Roundup
Issued by NWS

Home | Current Version | Previous Version | Graphics & Text | Print | Product List | Glossary On
Versions: 1 2 3 4 5 6 7 8 9 10 11 12 13 14 15 16 17 18 19 20 21 22 23 24 25 26 27 28 29 30 31 32 33 34 35 36 37 38 39 40 41 42 43 44 45 46 47 48 49 50
000
ASUS43 KMPX 271801
RWRMN
WEATHER ROUNDUP FOR MINNESOTA
NATIONAL WEATHER SERVICE TWIN CITIES/CHANHASSEN MN
100 PM CDT MON JUL 27 2015


NOTE: "FAIR" INDICATES FEW OR NO CLOUDS BELOW 12,000 FEET WITH NO
SIGNIFICANT WEATHER AND/OR OBSTRUCTIONS TO VISIBILITY. N/A MEANS
CURRENT SKY AND/OR WEATHER CONDITIONS ARE NOT AVAILABLE.

MNZ060>063-068>070-271900-
   Twin Cities Metro

CITY           SKY/WX    TMP DP  RH WIND       PRES   REMARKS
TWIN CITIES    PTSUNNY   84  71  65 SE15G21   29.94F
6HR MIN TEMP:  72; 6HR MAX TEMP:  85;

ST PAUL        PTSUNNY   83  72  69 SE14      29.95F
CRYSTAL        PTSUNNY   85  70  60 SE12G20   29.92F
BLAINE         PTSUNNY   84  72  65 SE16G24   29.94F
LAKEVILLE      PTSUNNY   81  72  74 SE9       29.96F
EDEN PRAIRIE   PTSUNNY   83  72  69 SE17      29.92F
6HR MIN TEMP:  72; 6HR MAX TEMP:  85;

SOUTH ST PAUL  MOSUNNY   83  70  65 SE9G16    29.95F
LAKE ELMO      FAIR      82  72  69 SE10      29.98F
$$
MNZ001>005-007-008-013>017-022>024-027-028-271900-
   Northwest Minnesota

CITY           SKY/WX    TMP DP  RH WIND       PRES   REMARKS
BEMIDJI        PTSUNNY   82  70  65 SE13      29.92F
HALLOCK        MOSUNNY   84  72  65 S10       29.86F
ROSEAU         MOSUNNY   84  73  70 S7        29.90F HX  91
WARROAD        MOSUNNY   82  73  74 NE8       29.91F
THIEF RVR FALL MOSUNNY   82  70  65 SE13      29.89F
CROOKSTON      MOSUNNY   82  72  69 S12       29.87F
FOSSTON        MOSUNNY   84  72  65 SE8       29.91F
DETROIT LAKES  MOSUNNY   82  68  61 SE14G20   29.91F
MOORHEAD       PTSUNNY   82  70  65 SE10      29.86F
PARK RAPIDS    PTSUNNY   85  69  58 SE16      29.92F
MAHNOMEN       MOCLDY    82  70  68 SE8       29.90S
$$
MNZ006-009>011-018-025>026-271900-
   North Central Minnesota

CITY           SKY/WX    TMP DP  RH WIND       PRES   REMARKS
BAUDETTE       MOSUNNY   85  67  54 VRB7      29.91F
FLAG ISLAND    MOSUNNY   79  70  73 CALM      29.91S
INTL FALLS     SUNNY     85  64  49 SE13G20   29.94F
6HR MIN TEMP:  64; 6HR MAX TEMP:  85;

WASKISH        MOSUNNY   84  70  61 SE7       29.92S
BIG FORK       MOSUNNY   84  66  54 S9        29.95F
LONGVILLE      PTSUNNY   82  70  65 SE5       29.94S
GRAND RAPIDS   MOSUNNY   82  63  51 SE10      29.95F
CRANE LAKE     SUNNY     84  61  45 SE3       29.97F
ORR            SUNNY     84  59  42 SE7       29.94F
COOK           SUNNY     84  63  48 S7        29.97F
WALKER         CLOUDY    80  69  70 SE7       29.93S
$$
MNZ012-019>021-037-271900-
   Northeast Minnesota

CITY           SKY/WX    TMP DP  RH WIND       PRES   REMARKS
DULUTH         MOSUNNY   82  65  56 E10G20    29.99F
6HR MIN TEMP:  69; 6HR MAX TEMP:  83;

ELY            SUNNY     88  54  31 SE7       29.98F
HIBBING        SUNNY     85  64  49 VRB7      29.97F
EVELETH        SUNNY     84  61  45 S8        29.99F
DULUTH HARBOR  SUNNY     75  72  88 NE9       29.97F
TWO HARBORS    SUNNY     84  70  61 S7        29.98F
SILVER BAY     SUNNY     84  63  48 S8        29.99S
GRAND MARAIS     N/A     62  57  83 W6        29.98F
G MARAIS ARPRT   N/A     82  57  42 S7        30.06S
$$
MNZ029>031-032-039>041-046>048-054>057-064-271900-
   West Central Minnesota

CITY           SKY/WX    TMP DP  RH WIND       PRES   REMARKS
FERGUS FALLS   MOSUNNY   84  72  65 SE15G21   29.86F
WHEATON        MOSUNNY   81  72  74 SE16      29.86F
MORRIS         MOSUNNY   84  73  70 SE13      29.86F HX  91
ALEXANDRIA     PTSUNNY   83  71  67 SE16G22   29.92S
ELBOW LAKE     PTSUNNY   83  73  69 SE15G21   29.88F
WADENA         MOSUNNY   82  70  65 SE14      29.92S
GLENWOOD       MOSUNNY   82  72  69 SE12      29.91F
APPLETON       MOSUNNY   84  73  70 SE16      29.85  HX  91
BENSON         PTSUNNY   84  72  65 S13       29.87S
ORTONVILLE     MOSUNNY   84  73  70 SE8       29.85S HX  91
MADISON        MOSUNNY   81  75  83 SE14G20   29.86S
WILLMAR        FAIR      84  73  70 SE16G23   29.91S HX  91
$$
MNZ033>034-036-042>043-049>051-058-059-271900-
   Central Minnesota

CITY           SKY/WX    TMP DP  RH WIND       PRES   REMARKS
ST CLOUD       MOSUNNY   85  71  63 SE12      29.92F HX  90
6HR MIN TEMP:  70; 6HR MAX TEMP:  85;

SAUK CENTRE    MOCLDY    81  72  74 SE13      29.92F
PAYNESVILLE    MOSUNNY   81  71  72 E13G18    29.92F
AITKIN         MOSUNNY   84  70  61 SE9       29.94S
PINE RIVER     MOSUNNY   82  70  65 SE9       29.96F
BRAINERD       PTSUNNY   81  69  67 VRB3      29.94S
STAPLES        PTSUNNY   81  70  69 SE8G16    29.93R
LONG PRAIRIE   CLOUDY    81  70  69 SE13      29.93F
LITTLE FALLS   MOSUNNY   82  68  61 SE13G18   29.93S
LITCHFIELD     MOSUNNY   82  77  83 SE12      29.93R HX  91
BUFFALO        MOSUNNY   84  71  63 E8        29.94F
MAPLE LAKE     MOSUNNY   84  75  74 SE7       29.93F HX  92
$$
MNZ037-044-045-052-053-271900-
   East Central Minnesota

CITY           SKY/WX    TMP DP  RH WIND       PRES   REMARKS
PRINCETON      MOSUNNY   86  72  62 SE12      29.94S HX  92
MORA           MOSUNNY   81  66  61 SE10G16   29.97F
CAMBRIDGE      PTSUNNY   84  70  61 SE12      29.93F
RUSH CITY      MOSUNNY   82  69  66 SE10      29.96F
MOOSE LAKE     MOSUNNY   82  68  61 SE7       29.95F
HINCKLEY       FAIR      82  70  65 SE7       29.97F
CLOQUET        SUNNY     82  61  47 SE6       29.98F
MCGREGOR       SUNNY     82  68  61 SE12      29.96F
$$
MNZ071>073-080-081-089-090-097-098-271900-
   Southwest Minnesota

CITY           SKY/WX    TMP DP  RH WIND       PRES   REMARKS
MONTEVIDEO     PTSUNNY   84  75  74 S13G21    29.89S HX  92
GRANITE FALLS  CLOUDY    79  73  82 SE16G23   29.89F
CANBY          CLOUDY    80  73  79 SE15      29.88S
MARSHALL       CLOUDY    81  72  74 SE14      29.88F
REDWOOD FALLS  CLOUDY    79  74  84 SE10      29.89F
OLIVIA         CLOUDY    77  72  83 SE14      29.90F
PIPESTONE      SUNNY     82  72  69 S10       29.89R
WINDOM         CLOUDY    79  73  83 SE17      29.92S
WORTHINGTON    PTSUNNY   81  68  65 SE13      29.90F
JACKSON        CLOUDY    79  72  78 SE13      29.94S
TRACY          MOSUNNY   82  75  78 SE12      29.89F
SLAYTON        MOSUNNY   82  73  74 SE14      29.91S
$$
MNZ065>067-074>077-082>085-091>093-271900-
   South Central Minnesota

CITY           SKY/WX    TMP DP  RH WIND       PRES   REMARKS
MANKATO        CLOUDY    79  72  78 SE16      29.94F
NEW ULM        CLOUDY    79  73  83 SE15G21   29.92S
ST JAMES       CLOUDY    81  75  83 E16       29.93S
FAIRMONT       CLOUDY    79  70  73 S15       29.94R
GLENCOE        CLOUDY    83  76  79 SE10      29.93S HX  90
FARIBAULT      CLOUDY    81  73  78 SE14      29.97S
OWATONNA       CLOUDY    79  72  78 SE13      29.98S
WASECA         CLOUDY    77  72  83 SE9       29.98F
ALBERT LEA     CLOUDY    79  73  83 S14       29.98F
$$
MNZ078>079-086>088-094>096-271900-
   Southeast Minnesota

CITY           SKY/WX    TMP DP  RH WIND       PRES   REMARKS
ROCHESTER      CLOUDY    80  72  76 SE8       30.01S
6HR MIN TEMP:  67; 6HR MAX TEMP:  80;

RED WING       CLOUDY    82  70  65 SE9       29.97F
STANTON        CLOUDY    81  70  70 SE9       29.96F
DODGE CENTER   CLOUDY    79  72  78 S8        30.01R
WINONA         PTSUNNY   82  68  61 SE9       30.00S
AUSTIN         CLOUDY    81  72  74 SE6       29.99F
PRESTON        PTSUNNY   81  69  66 SE9       30.02F
$$
ABBREVIATIONS USED IN REMARKS
   TC - TEMPERATURES IN CELSIUS
  WCI - WIND CHILL INDEX
   HX - HEAT INDEX
  VSB - VISIBILITY
$$



USA.gov is the U.S. government's official web portal to all federal, state and local government web resources and services.